Weather in Padany

Russia / Republic of Karelia     63°17′11″N   33°24′57″E
temp.,
°C
wind,
m/s
gust,
m/s
humid.,
%
clouds,
%
prec.,
mm/h
press.,
hPa
HPBL,
m
18 september, sat
sat1800:00+7nne4575100 0.1 1028573
03:00+6nne4575100 0.3 1029544
06:00+6ne4576100 0.1 1030597
09:00+6e3573100 0.3 1030758
12:00+7ene2266100 0.1 1031841
15:00+7ne2267100 0.2 1031558
18:00+7ene2461100 0.1 1031773
21:00+7ene3467100 0.1 1031559
19 september, sun
sun1900:00+7ene3369100 0.1 1031509
03:00+6ne347394 0.2 1032317
06:00+6ne347766 0.1 1032281
09:00+7e4567100 0.2 1033807
12:00+7ene4561100 0.1 10331158
15:00+8e455796 0.2 10331298
18:00+8ene465885 0.0 10321136
21:00+7ene576998 0.1 1033800
20 september, mon
mon2000:00+6ese577039 0.1 1034711
03:00+6ene4668100 0.1 1034802
06:00+6ene5768100 0.1 1034803
09:00+7ene6770100 0.1 10351013
12:00+8e676285 0.1 10341349
15:00+8ene6659100 0.1 10331422
18:00+7e5663100 0.0 10331043
21:00+6e6760100 0.0 10321070
21 september, tue
tue2100:00+5ese5664100 0.0 10321017
03:00+5ese346499 0.0 1031770
06:00+5ese3461100 0.0 1030880
09:00+5ese446074 0.0 1029971
12:00+5e3459100 0.0 1028953
15:00+7ene345677 0.0 10271034
18:00+7ene346272 0.0 1026665
21:00+5e35695 0.0 1026580
22 september, wed
wed2200:00+5e23745 0.0 1025423
03:00+4e23795 0.0 1024351
06:00+4e23825 0.0 1024321
09:00+5se34785 0.0 1023348
12:00+7ese23655 0.0 1022633
15:00+9e225959 0.0 1021676
18:00+8se236489 0.0 1020303
21:00+6sse4477100 0.0 1020178